星链-1948 (STARLINK-1948 )

导读 | 豆包AI

STARLINK-1948是美国SpaceX公司星链(Starlink)项目的卫星,于2020年10月24日发射入轨,属于星链低轨互联网星座的组成部分。它旨在为全球提供高速低延迟的宽带互联网服务,尤其覆盖偏远地区,是星链星座组网进程中发射的卫星之一。

基本信息
目录编号:
46798
目录名称:
STARLINK-1948
国际标识:
2020-074BM
轨道中心:
EARTH
卫星名称:
星链-1948
卫星全名:
星链-1948 (STARLINK-1948 )
卫星状态:
已陨落 最后检测时间 2025-02-09
发射日期:
2020-10-24 UTC
国别 :
美国 (US)
星等 :
--
轨道信息
数据来源 国际轨道数据
星历时间: 2025-02-09T18:24:38+0800
轨道信息已过期418天
半长轴: 6531.745km
偏心率: 0.0012587
轨道倾角: 52.984°
近地点辐角 47.134°
升交点赤经 267.542°
平近点角 80.427°
近地点: 145.388km
远地点: 161.832km
周期: 87.560分钟
每日圈数: 16.445949
详细信息
固有亮度:
5
最大亮度:
2.5
卫星平台:
Starlink V1.0
覆盖范围:
全球
运营商:
太空探索技术公司
运营商所在国:
美国
制造商(研发单位):
太空探索技术公司
制造商所在国:
美国
使用方式:
暂无
卫星简介
星链(Starlink)计划是由太空探索技术公司(SpaceX)提出的一个巨型低轨卫星互联网星座项目,计划在2019年至2024年间在太空搭建由约1.2万颗卫星组成的“星链”网络,其中1584颗将部署在地球上空550千米处的近地轨道,并从2020年开始工作。该卫星仍在工作。